[[{"header":{"parameterUnit":"m.s-1","parameterCategory":1,"la1":30.2991,"la2":30.254,"lo1":-89.0895,"lo2":-89.0444,"dy":0.0017,"dx":0.0017,"nx":28,"ny":28,"refTime":"2025-05-20T09:00:00:Z","depth":0,"parameterNumber":2,"parameterNumberName":"U-component_of_WINDS"},"data":[0,0,0,0,0,0,0,0,0,0,0,0,0,0,0,0,0,0,0,0,0,0,0,0,0,0,0,0,0,0,0,0,0,0,0,0,0,0,0,0,0,0,0,0,0,0,0,0,0,0,0,0,0,0,0,0,0,0,4.2529,4.253,0,4.2623,4.2625,4.2626,4.2575,4.2573,4.257,4.2568,4.2666,4.2671,4.2676,0,0,0,0,0,0,0,0,0,0,0,0,0,4.2308,4.2312,4.2529,4.253,4.2532,4.2623,4.2625,4.2626,4.2576,4.2573,4.257,4.2567,4.2664,4.267,4.2676,0,0,0,0,0,0,0,0,0,0,0,0,0,4.2403,4.2313,4.2529,4.2518,4.2518,4.2623,4.2625,4.2626,4.2576,4.2573,4.2569,4.2565,4.2662,4.267,4.2677,4.28,0,0,4.27,4.2703,0,0,0,0,0,0,0,0,4.2398,4.2411,4.2518,4.2519,4.2519,4.2584,4.2582,4.2684,4.2577,4.2554,4.2568,4.2563,4.2642,4.2651,4.2677,4.2804,4.2809,4.2701,4.2705,4.2708,4.2711,0,0,0,0,0,0,0,4.2391,4.2407,4.2566,4.252,4.252,4.2508,4.2518,4.2602,4.2618,4.2556,4.2552,4.2564,4.2641,4.267,4.2679,4.281,4.27,4.2707,4.2712,4.2715,4.3042,4.3046,0,0,0,0,0,0,4.2385,4.2402,4.2563,4.2569,4.2448,4.2515,4.2526,4.2567,4.2617,4.2621,4.2567,4.2561,4.2659,4.267,4.2682,4.2828,4.2708,4.2715,4.272,4.3038,4.3043,4.3048,0,0,0,0,0,0,4.2381,4.24,4.256,4.2485,4.2504,4.2523,4.257,4.2571,4.2599,4.2626,4.2629,4.2593,4.2656,4.2672,4.2771,4.2831,4.2719,4.2726,4.3033,4.304,4.3046,4.3121,0,0,0,0,0,0,4.2374,4.2399,4.2445,4.2486,4.2508,4.2646,4.2573,4.2575,4.2612,4.2605,4.2651,4.2655,4.2655,4.276,4.2778,4.2839,4.2731,4.3028,4.3036,4.3044,4.3114,4.313,4.3143,0,0,0,0,0,4.2367,4.2463,4.2448,4.2467,4.2567,4.265,4.2663,4.2659,4.2617,4.2664,4.2681,4.2653,4.2822,4.277,4.2791,4.2855,4.3024,4.3034,4.3043,4.3107,4.3126,4.3143,0,0,0,0,0,0,4.2429,4.2468,4.2451,4.2564,4.2604,4.2641,4.27,4.268,4.2734,4.2725,4.272,4.2731,4.2833,4.2854,4.2796,4.2976,4.2916,4.293,4.2958,4.2977,4.2991,4.2983,4.2738,0,0,0,0,0,4.2456,4.2519,4.2551,4.2647,4.2668,4.2681,4.2717,4.2711,4.2753,4.2769,4.2794,4.2836,4.2898,4.2939,4.2997,4.3117,4.3126,4.3171,4.3186,4.3198,4.321,4.3274,4.3294,4.3079,4.3079,4.3079,0,0,4.2511,4.2541,4.2582,4.266,4.269,4.2757,4.2695,4.2768,4.2817,4.2781,4.2875,4.2895,4.2941,4.3051,4.31,4.3071,4.3271,4.321,4.322,4.3225,4.3286,4.3306,4.3324,4.3085,4.3084,4.3083,0,0,4.2647,4.2676,4.2759,4.279,4.2837,4.2845,4.2865,4.2906,4.2917,4.3012,4.2985,4.3045,4.3152,4.3186,4.3217,4.3366,4.3343,4.3386,4.3462,4.3525,4.3542,4.3557,4.3609,4.3628,4.3398,4.3398,4.3398,0,4.271,4.2808,4.2804,4.2879,4.2914,4.2884,4.2968,4.2999,4.3063,4.3088,4.3055,4.3188,4.3218,4.3334,4.3371,4.3398,4.342,4.3379,4.354,4.3555,4.3569,4.3618,4.3638,4.3403,4.3402,4.3402,4.3401,0,4.2884,4.2953,4.3014,4.3076,4.3118,4.3198,4.3205,4.3249,4.324,4.3252,4.3349,4.3383,4.3448,4.3476,4.3468,4.3592,4.3572,4.354,4.3479,4.3594,4.364,4.3659,4.341,4.3408,4.3406,4.3405,0,0,4.3059,4.3117,4.314,4.3167,4.3217,4.327,4.3349,4.3411,4.3448,4.3494,4.3559,4.3651,4.3621,4.3657,4.3653,4.3709,4.3823,4.3669,4.367,4.3695,4.396,4.3983,4.4005,4.3809,4.3812,4.3815,4.3956,0,4.3196,4.3332,4.333,4.3456,4.3519,4.3492,4.356,4.3599,4.3612,4.3668,4.3684,4.3748,4.3705,4.3726,4.378,4.3798,4.3876,4.3788,4.3869,4.3871,4.3856,4.4029,4.4053,4.4184,4.3974,4.3977,4.3979,0,4.3374,4.3424,4.3556,4.3596,4.3623,4.3684,4.3741,4.3796,4.3839,4.3845,4.3885,4.3873,4.3953,4.3892,4.4002,4.3942,4.3975,4.3989,4.3994,4.4,4.3931,4.4038,4.4226,4.4245,4.4008,4.4006,4.4004,0,4.3486,4.3588,4.368,4.3704,4.3754,4.3797,4.382,4.3859,4.3897,4.3948,4.3972,4.4032,4.4065,4.4112,4.4116,4.4071,4.4227,4.4166,4.4233,4.4233,4.4265,4.4263,4.4459,4.429,4.429,4.429,4.4289,0,4.3639,4.372,4.3731,4.3787,4.3877,4.3876,4.3966,4.3985,4.402,4.408,4.4061,4.4118,4.4121,4.4179,4.4184,4.4273,4.4289,4.4296,4.4295,4.4296,4.4295,4.4316,4.4306,4.4295,4.4294,4.4293,4.4292,0,4.3778,4.3789,4.3887,4.3926,4.3938,4.4003,4.4036,4.409,4.4102,4.4178,4.4196,4.4216,4.4283,4.4293,4.4373,4.4375,4.4483,4.4474,4.4468,4.4466,4.4531,4.4524,4.4747,4.4775,4.459,4.4592,4.4593,0,4.3874,4.3935,4.3981,4.402,4.4045,4.4107,4.4145,4.4147,4.4188,4.4242,4.4289,4.4355,4.4407,4.4517,4.4538,4.4599,4.459,4.4664,4.4599,4.4598,4.4589,4.4585,4.459,4.4676,4.4678,4.468,4.4681,0,4.4041,4.4043,4.4099,4.4157,4.4204,4.425,4.4293,4.4326,4.4333,4.438,4.4448,4.4489,4.457,4.4635,4.4696,4.472,4.4702,4.4702,4.472,4.472,4.4713,4.4716,4.45,4.4696,4.4694,4.4693,4.4693,4.4692,4.416,4.4214,4.4254,4.4317,4.435,4.4391,4.4443,4.4462,4.4519,4.4584,4.4582,4.4658,4.4699,4.4778,4.4807,4.4866,4.4842,4.4869,4.4875,4.4881,4.4887,4.4706,4.4877,4.4877,4.4876,4.4876,4.4876,0,4.4325,4.435,4.4408,4.4469,4.4519,4.4498,4.4545,4.4587,4.4654,4.4694,4.4746,4.4825,4.4888,4.4915,4.4978,4.502,4.5013,4.5036,4.5032,4.5037,4.4906,4.4883,4.504,4.504,4.504,4.504,4.504,4.504,4.4417,4.4505,4.4513,4.4618,4.4642,4.4715,4.4744,4.4782,4.4814,4.4902,4.4955,4.4972,4.5007,4.5072,4.5129,4.5135,4.5158,4.5185,4.5187,4.5063,4.5047,4.5031,4.5009,4.519,4.519,4.5313,4.5314,4.5315]},{"header":{"parameterUnit":"m.s-1","parameterCategory":1,"la1":30.2991,"la2":30.254,"lo1":-89.0895,"lo2":-89.0444,"dy":0.0017,"dx":0.0017,"nx":28,"ny":28,"refTime":"2025-05-20T09:00:00:Z","depth":0,"parameterNumber":3,"parameterNumberName":"V-component_of_WINDS"},"data":[0,0,0,0,0,0,0,0,0,0,0,0,0,0,0,0,0,0,0,0,0,0,0,0,0,0,0,0,0,0,0,0,0,0,0,0,0,0,0,0,0,0,0,0,0,0,0,0,0,0,0,0,0,0,0,0,0,0,2.0541,2.0543,0,2.069,2.0692,2.0694,2.0724,2.0722,2.0721,2.072,2.0874,2.0879,2.0884,0,0,0,0,0,0,0,0,0,0,0,0,0,2.0283,2.0287,2.0541,2.0543,2.0545,2.069,2.0692,2.0694,2.0724,2.0722,2.0721,2.072,2.0872,2.0878,2.0884,0,0,0,0,0,0,0,0,0,0,0,0,0,2.0409,2.0289,2.0541,2.0577,2.0582,2.0689,2.0692,2.0695,2.0724,2.0722,2.0721,2.0719,2.087,2.0878,2.0885,2.0967,0,0,2.0909,2.0912,0,0,0,0,0,0,0,0,2.0402,2.0419,2.057,2.0575,2.058,2.0686,2.0657,2.0786,2.0724,2.067,2.072,2.0718,2.0813,2.0825,2.0857,2.0975,2.0981,2.0909,2.0914,2.0918,2.092,0,0,0,0,0,0,0,2.0393,2.0413,2.06,2.0572,2.0578,2.0586,2.0602,2.0682,2.0749,2.0675,2.0677,2.0694,2.0815,2.0849,2.0861,2.0983,2.0909,2.0916,2.0921,2.0924,2.1177,2.1179,0,0,0,0,0,0,2.0378,2.0405,2.0595,2.0604,2.0485,2.0592,2.061,2.0654,2.0749,2.0761,2.0696,2.0695,2.0837,2.0852,2.0866,2.097,2.0917,2.0925,2.0929,2.1175,2.1177,2.1179,0,0,0,0,0,0,2.0372,2.0395,2.0589,2.0506,2.0531,2.0598,2.0647,2.0658,2.0692,2.0764,2.0777,2.0718,2.0836,2.0855,2.0942,2.0975,2.0928,2.0935,2.1172,2.1175,2.1178,2.1176,0,0,0,0,0,0,2.0365,2.0393,2.0424,2.0506,2.0535,2.0662,2.065,2.0662,2.0705,2.0706,2.0789,2.0801,2.0836,2.093,2.095,2.0985,2.0941,2.117,2.1174,2.1177,2.1174,2.1179,2.1183,0,0,0,0,0,2.0356,2.0418,2.0426,2.0449,2.0576,2.0664,2.0681,2.0721,2.0708,2.0741,2.0787,2.0798,2.0968,2.0939,2.0961,2.0999,2.1168,2.1173,2.1177,2.1171,2.1178,2.1183,0,0,0,0,0,0,2.0339,2.0429,2.0439,2.053,2.0589,2.0669,2.0712,2.0726,2.079,2.0788,2.0835,2.0853,2.0938,2.0977,2.0943,2.1084,2.1067,2.1077,2.1055,2.1062,2.1067,2.1056,2.0948,0,0,0,0,0,2.0345,2.0409,2.0485,2.0557,2.0586,2.0644,2.0683,2.0709,2.0772,2.0798,2.085,2.0912,2.0979,2.1023,2.1089,2.1179,2.1198,2.1216,2.1221,2.1224,2.1232,2.1284,2.1293,2.1195,2.1195,2.1195,0,0,2.036,2.0417,2.0455,2.0555,2.0604,2.0669,2.0665,2.0734,2.0782,2.0808,2.0893,2.0934,2.1006,2.1095,2.1137,2.113,2.1263,2.123,2.1233,2.1239,2.1289,2.1299,2.1307,2.1198,2.1197,2.1197,0,0,2.042,2.0469,2.0536,2.0585,2.0659,2.0697,2.0712,2.0791,2.0819,2.0905,2.0926,2.0984,2.1099,2.115,2.119,2.1269,2.1282,2.1289,2.1315,2.1364,2.1372,2.1379,2.1408,2.1418,2.1297,2.1297,2.1297,0,2.0429,2.0528,2.0568,2.0636,2.068,2.0706,2.0773,2.0819,2.0911,2.0941,2.0932,2.1077,2.1127,2.1229,2.1248,2.128,2.13,2.1281,2.1368,2.1375,2.1383,2.1411,2.1421,2.1297,2.1297,2.1297,2.1297,0,2.0535,2.0603,2.0648,2.0736,2.0785,2.0852,2.0903,2.0948,2.0968,2.1007,2.1095,2.1156,2.1235,2.126,2.1281,2.1365,2.1359,2.1358,2.1343,2.1392,2.1419,2.143,2.1298,2.1298,2.1297,2.1297,0,0,2.059,2.0699,2.0715,2.0755,2.0839,2.0892,2.0961,2.1038,2.1076,2.1138,2.1197,2.1294,2.1294,2.134,2.1367,2.141,2.147,2.1405,2.1407,2.1415,2.1567,2.1567,2.1579,2.1478,2.1481,2.1482,2.1561,0,2.0661,2.0784,2.0822,2.0926,2.0989,2.1015,2.1075,2.1133,2.117,2.123,2.1272,2.134,2.1335,2.1363,2.1407,2.1453,2.1501,2.1448,2.1535,2.1537,2.1517,2.1593,2.1594,2.1665,2.1572,2.1574,2.1575,0,2.076,2.0824,2.0934,2.1009,2.1038,2.1091,2.1165,2.1221,2.1288,2.1312,2.1363,2.1387,2.146,2.1439,2.1541,2.1504,2.1542,2.157,2.1574,2.1584,2.156,2.1607,2.1689,2.17,2.1592,2.1591,2.1589,0,2.0789,2.0903,2.0984,2.1017,2.1107,2.1144,2.1184,2.1248,2.1292,2.1357,2.1386,2.1458,2.1498,2.1553,2.1595,2.1576,2.1694,2.1676,2.1717,2.1716,2.1741,2.1739,2.1832,2.1764,2.1764,2.1763,2.1763,0,2.0865,2.0931,2.0998,2.1048,2.1123,2.1166,2.124,2.128,2.1337,2.1396,2.1422,2.1476,2.1528,2.1589,2.1623,2.1702,2.172,2.1742,2.1751,2.1741,2.1738,2.1767,2.1763,2.1766,2.1766,2.1765,2.1765,0,2.0911,2.0958,2.1048,2.1126,2.1147,2.1199,2.1266,2.1316,2.1354,2.1428,2.1447,2.1508,2.1582,2.1629,2.1723,2.1745,2.1833,2.1839,2.181,2.1814,2.1853,2.1849,2.1968,2.1986,2.1904,2.1905,2.1906,0,2.0957,2.1008,2.1092,2.1133,2.1172,2.1238,2.1283,2.1327,2.1373,2.1452,2.1492,2.1567,2.163,2.1746,2.1799,2.1871,2.188,2.1916,2.1891,2.1879,2.1881,2.1878,2.1884,2.1921,2.1921,2.1922,2.1922,0,2.1033,2.1054,2.1117,2.119,2.1242,2.1301,2.136,2.1392,2.1447,2.1497,2.1573,2.1621,2.1717,2.1791,2.1868,2.1909,2.1925,2.193,2.1943,2.1934,2.1916,2.1927,2.1823,2.1927,2.1927,2.1926,2.1926,2.1926,2.1081,2.1128,2.1194,2.1265,2.1314,2.1368,2.1419,2.1464,2.1527,2.1608,2.1631,2.1709,2.1775,2.1879,2.1922,2.1984,2.198,2.1999,2.2004,2.2009,2.2009,2.1905,2.1998,2.1998,2.1998,2.1998,2.1998,0,2.1159,2.1203,2.1267,2.1349,2.1404,2.1414,2.148,2.1526,2.1595,2.1654,2.1715,2.1802,2.1875,2.1933,2.2008,2.2046,2.2056,2.2065,2.2063,2.2072,2.2009,2.199,2.2056,2.2056,2.2056,2.2056,2.2056,2.2056,2.1206,2.1287,2.1316,2.1421,2.1465,2.1542,2.1579,2.163,2.1678,2.1773,2.1834,2.1871,2.1931,2.201,2.2077,2.2092,2.2119,2.2126,2.2143,2.2083,2.2077,2.207,2.2053,2.2131,2.2131,2.2202,2.2202,2.2203]}]]